"Pseudo-MPEC" for P215X7B

Created 2020 Sep 16 23:07:50 UT using Find_Orb

Click here for an explanation of pseudo-MPECs

 
 Astrometry: 
     P215X7B  C2020 09 13qMh!D7-(RZk9\e*?dP(K]@VF,'N82`r]Astrometryg`_2Qln*9wF52
     P215X7B  C2020 09 13b%\\Credacted;fdII^%Jclickj-x\s8UVoo8G;`+Ay(^$tH*^q.F52
     P215X7B  C2020 09 13BPXg]0#0IXA)(6uO,[4MZpe95_;?CfM@_aTJddsw+V%vQ.(2v/FlF52
     P215X7B  C2020 09 14u9'ZT!Xthere(RkBmEl1c?.IugELOM8K681,yF:X5]0%W%qhh6w7F52
     P215X7B  C2020 09 14e6kn=]?TO7?[7evkCeN-forESJ$-ln^^YtJp8ajexplanationF7F52

Station data:
(F52) Pan-STARRS 2, Haleakala  (N20.707384 W156.255910)  US/Hawaii. 1.8-m
   Ritchey-Chrétien + CCD.

Orbital elements:  P215X7B
   Perihelion 2019 Sep 1.937978 +/- 218 TT = 22:30:41 (JD 2458728.437978)
Epoch 2020 Sep 14.0 TT = JDT 2459106.5   Earth MOID: 0.6875   Ma: 0.0232
M 158.39067473 +/- 120              (J2000 ecliptic)          AutoNEOCP
n   0.41895420 +/- 0.171            Peri.  196.01627 +/- 80
a   1.76885273 +/- 0.482            Node   352.78421 +/- 1.6
e   0.0501949 +/- 0.257             Incl.   21.89209 +/- 16
P   2.35/859.27d           H 20.3   G  0.15   U 11.6  SR
q 1.68006528 +/- 0.529    Q 1.85764018 +/- 5.47
From 5 observations 2020 Sept. 13-14 (23.4 hr); mean residual 0".14
Residuals in arcseconds: 
200913 F52  .12+  .13+    200913 F52  .14-  .17-    200914 F52  .22-  .07+    
200913 F52  .00   .04+    200914 F52  .24+  .07-    

Ephemerides (geocentric):
Date (UTC) HH   RA              Dec         delta   r     elong  mag " sig PA
---- -- -- --  -------------   -----------  ------ ------ -----  --- ---- ---
2020 09 16 23  23 11 51.611   -07 20 00.70  .85240 1.8526 171.6 21.7  112  17
2020 09 17 00  23 11 46.965   -07 19 38.88  .85248 1.8526 171.5 21.7  116  17
2020 09 17 01  23 11 42.321   -07 19 17.05  .85256 1.8526 171.5 21.7  119  17
2020 09 17 02  23 11 37.678   -07 18 55.21  .85264 1.8526 171.4 21.7  122  17
2020 09 17 03  23 11 33.037   -07 18 33.37  .85272 1.8526 171.4 21.7  125  17
2020 09 17 04  23 11 28.398   -07 18 11.52  .85281 1.8526 171.3 21.7  128  17
2020 09 17 05  23 11 23.761   -07 17 49.66  .85289 1.8526 171.3 21.7  132  17
2020 09 17 06  23 11 19.126   -07 17 27.79  .85297 1.8527 171.2 21.7  135  17
2020 09 17 07  23 11 14.493   -07 17 05.92  .85306 1.8527 171.2 21.7  139  17
2020 09 17 08  23 11 09.862   -07 16 44.04  .85314 1.8527 171.1 21.7  142  17
2020 09 17 09  23 11 05.232   -07 16 22.15  .85323 1.8527 171.1 21.7  146  17
2020 09 17 10  23 11 00.605   -07 16 00.25  .85331 1.8527 171.0 21.7  149  17
2020 09 17 11  23 10 55.980   -07 15 38.34  .85340 1.8527 171.0 21.7  153  17
2020 09 17 12  23 10 51.356   -07 15 16.43  .85349 1.8527 170.9 21.7  156  17
2020 09 17 13  23 10 46.735   -07 14 54.51  .85357 1.8527 170.9 21.7  160  17
2020 09 17 14  23 10 42.115   -07 14 32.58  .85366 1.8527 170.8 21.7  164  17
2020 09 17 15  23 10 37.498   -07 14 10.64  .85375 1.8527 170.8 21.7  167  17
2020 09 17 16  23 10 32.882   -07 13 48.70  .85384 1.8527 170.7 21.7  171  17
2020 09 17 17  23 10 28.269   -07 13 26.75  .85392 1.8527 170.7 21.7  175  17
2020 09 17 18  23 10 23.657   -07 13 04.79  .85401 1.8528 170.6 21.7  179  17
2020 09 17 19  23 10 19.048   -07 12 42.82  .85410 1.8528 170.6 21.7  183  17
2020 09 17 20  23 10 14.440   -07 12 20.85  .85419 1.8528 170.5 21.7  187  17
2020 09 17 21  23 10 09.835   -07 11 58.87  .85428 1.8528 170.4 21.7  191  17
2020 09 17 22  23 10 05.232   -07 11 36.88  .85438 1.8528 170.4 21.7  195  17
2020 09 17 23  23 10 00.631   -07 11 14.88  .85447 1.8528 170.3 21.7  199  17
2020 09 18 00  23 09 56.032   -07 10 52.87  .85456 1.8528 170.3 21.7  203  17
2020 09 18 01  23 09 51.435   -07 10 30.86  .85465 1.8528 170.2 21.7  207  17
2020 09 18 02  23 09 46.840   -07 10 08.84  .85474 1.8528 170.2 21.7  211  17
2020 09 18 03  23 09 42.248   -07 09 46.81  .85484 1.8528 170.1 21.7  216  17
2020 09 18 04  23 09 37.657   -07 09 24.78  .85493 1.8528 170.1 21.7  220  17
2020 09 18 05  23 09 33.069   -07 09 02.74  .85503 1.8528 170.0 21.7  224  17
2020 09 18 06  23 09 28.483   -07 08 40.69  .85512 1.8529 170.0 21.7  229  17
2020 09 18 07  23 09 23.899   -07 08 18.63  .85522 1.8529 169.9 21.7  233  17
2020 09 18 08  23 09 19.317   -07 07 56.57  .85531 1.8529 169.9 21.7  237  17
2020 09 18 09  23 09 14.737   -07 07 34.49  .85541 1.8529 169.8 21.7  242  17
2020 09 18 10  23 09 10.160   -07 07 12.41  .85550 1.8529 169.8 21.7  246  17
2020 09 18 11  23 09 05.585   -07 06 50.33  .85560 1.8529 169.7 21.7  251  17
2020 09 18 12  23 09 01.012   -07 06 28.23  .85570 1.8529 169.7 21.7  255  17
2020 09 18 13  23 08 56.442   -07 06 06.13  .85580 1.8529 169.6 21.7  260  17
2020 09 18 14  23 08 51.873   -07 05 44.02  .85590 1.8529 169.5 21.7  265  17
2020 09 18 15  23 08 47.307   -07 05 21.90  .85599 1.8529 169.5 21.7  270  17
2020 09 18 16  23 08 42.743   -07 04 59.78  .85609 1.8529 169.4 21.7  274  17
2020 09 18 17  23 08 38.182   -07 04 37.65  .85619 1.8529 169.4 21.7  279  17
2020 09 18 18  23 08 33.623   -07 04 15.51  .85629 1.8530 169.3 21.7  284  17
2020 09 18 19  23 08 29.066   -07 03 53.36  .85639 1.8530 169.3 21.7  289  17
2020 09 18 20  23 08 24.511   -07 03 31.21  .85650 1.8530 169.2 21.7  294  17
2020 09 18 21  23 08 19.959   -07 03 09.05  .85660 1.8530 169.2 21.7  299  17
2020 09 18 22  23 08 15.409   -07 02 46.88  .85670 1.8530 169.1 21.7  304  17